[[{"header":{"parameterUnit":"m.s-1","parameterCategory":1,"la1":30.2991,"la2":30.254,"lo1":-89.0895,"lo2":-89.0444,"dy":0.0017,"dx":0.0017,"nx":28,"ny":28,"refTime":"2023-09-10T21:00:00:Z","depth":0,"parameterNumber":2,"parameterNumberName":"U-component_of_WINDS"},"data":[0,0,0,0,0,0,0,0,0,0,0,0,0,0,0,0,0,0,0,0,0,0,0,0,0,0,0,0,0,0,0,0,0,0,0,0,0,0,0,0,0,0,0,0,0,0,0,0,0,0,0,0,0,0,0,0,0,0,-1.3899,-1.3899,0,-1.3931,-1.3932,-1.3932,-1.3961,-1.3961,-1.3961,-1.3961,-1.3993,-1.3993,-1.3994,0,0,0,0,0,0,0,0,0,0,0,0,0,-1.3857,-1.3858,-1.3899,-1.3899,-1.3899,-1.3931,-1.3932,-1.3932,-1.396,-1.3961,-1.3961,-1.3962,-1.3992,-1.3993,-1.3994,0,0,0,0,0,0,0,0,0,0,0,0,0,-1.3881,-1.3858,-1.3899,-1.3917,-1.3919,-1.3931,-1.3932,-1.3932,-1.396,-1.3961,-1.3961,-1.3962,-1.3992,-1.3993,-1.3994,-1.3988,0,0,-1.3996,-1.3996,0,0,0,0,0,0,0,0,-1.388,-1.3883,-1.3914,-1.3916,-1.3918,-1.3942,-1.3929,-1.3951,-1.396,-1.3945,-1.3962,-1.3962,-1.3975,-1.3977,-1.3982,-1.399,-1.3991,-1.3996,-1.3997,-1.3997,-1.3997,0,0,0,0,0,0,0,-1.3878,-1.3881,-1.3911,-1.3915,-1.3917,-1.3923,-1.3927,-1.3933,-1.3957,-1.3946,-1.3948,-1.3952,-1.3976,-1.3982,-1.3983,-1.3992,-1.3996,-1.3997,-1.3997,-1.3998,-1.3994,-1.3994,0,0,0,0,0,0,-1.3874,-1.388,-1.391,-1.3912,-1.39,-1.3924,-1.3928,-1.3934,-1.3957,-1.3961,-1.3951,-1.3953,-1.398,-1.3982,-1.3985,-1.3978,-1.3997,-1.3998,-1.3998,-1.3995,-1.3994,-1.3994,0,0,0,0,0,0,-1.3873,-1.3876,-1.3909,-1.3897,-1.3901,-1.3924,-1.393,-1.3935,-1.394,-1.3961,-1.3965,-1.3952,-1.3981,-1.3983,-1.3987,-1.398,-1.3998,-1.3999,-1.3996,-1.3995,-1.3994,-1.3967,0,0,0,0,0,0,-1.3872,-1.3876,-1.3875,-1.3897,-1.3902,-1.3912,-1.393,-1.3935,-1.3941,-1.3944,-1.3963,-1.3966,-1.3981,-1.3986,-1.3988,-1.3981,-1.3999,-1.3996,-1.3995,-1.3994,-1.3968,-1.3965,-1.3963,0,0,0,0,0,-1.387,-1.3866,-1.3875,-1.3878,-1.3901,-1.3911,-1.3914,-1.3932,-1.3941,-1.3939,-1.3952,-1.3966,-1.3981,-1.3986,-1.3988,-1.3982,-1.3997,-1.3995,-1.3994,-1.397,-1.3966,-1.3963,0,0,0,0,0,0,-1.3843,-1.3869,-1.3879,-1.3882,-1.3894,-1.3916,-1.3915,-1.3928,-1.3937,-1.3939,-1.396,-1.3964,-1.3964,-1.3974,-1.3979,-1.3977,-1.399,-1.399,-1.3971,-1.3967,-1.3964,-1.3961,-1.4,0,0,0,0,0,-1.3837,-1.3844,-1.3867,-1.3867,-1.3873,-1.3893,-1.3898,-1.391,-1.3923,-1.3928,-1.3942,-1.3953,-1.396,-1.3965,-1.3972,-1.397,-1.3974,-1.3967,-1.3964,-1.3962,-1.396,-1.3958,-1.3954,-1.399,-1.399,-1.399,0,0,-1.3826,-1.3841,-1.3844,-1.3862,-1.3873,-1.3878,-1.3897,-1.3902,-1.3906,-1.3929,-1.3933,-1.3943,-1.3957,-1.3957,-1.3958,-1.3965,-1.3951,-1.396,-1.3958,-1.3958,-1.3956,-1.3953,-1.395,-1.3989,-1.3989,-1.3989,0,0,-1.3807,-1.382,-1.3821,-1.3831,-1.3847,-1.3861,-1.3861,-1.388,-1.3888,-1.3893,-1.3909,-1.3914,-1.3926,-1.3935,-1.3941,-1.3923,-1.3935,-1.3925,-1.3909,-1.3907,-1.3904,-1.3901,-1.3893,-1.389,-1.3924,-1.3924,-1.3924,0,-1.379,-1.38,-1.3819,-1.3823,-1.383,-1.3851,-1.3851,-1.386,-1.3878,-1.3881,-1.3889,-1.3904,-1.3915,-1.3916,-1.3912,-1.3917,-1.3916,-1.3923,-1.3903,-1.3901,-1.3899,-1.3891,-1.3888,-1.3923,-1.3923,-1.3923,-1.3923,0,-1.3777,-1.3783,-1.3782,-1.3798,-1.3805,-1.3807,-1.3826,-1.383,-1.3841,-1.3853,-1.3856,-1.387,-1.388,-1.3882,-1.3893,-1.3884,-1.3888,-1.3899,-1.3912,-1.3893,-1.3886,-1.3884,-1.3921,-1.3921,-1.3922,-1.3922,0,0,-1.3742,-1.3769,-1.3768,-1.3775,-1.3794,-1.3798,-1.38,-1.3811,-1.3813,-1.3824,-1.3825,-1.3834,-1.3844,-1.3851,-1.3864,-1.3861,-1.3844,-1.3873,-1.3873,-1.3865,-1.3833,-1.3823,-1.382,-1.3853,-1.3853,-1.3852,-1.3831,0,-1.3725,-1.3731,-1.3748,-1.3748,-1.3753,-1.3773,-1.3774,-1.3785,-1.3796,-1.3801,-1.3813,-1.3818,-1.3832,-1.3836,-1.3835,-1.3847,-1.3838,-1.3849,-1.3852,-1.3852,-1.3846,-1.3816,-1.3806,-1.3786,-1.3829,-1.3828,-1.3828,0,-1.3707,-1.3716,-1.3716,-1.3733,-1.3736,-1.3737,-1.3747,-1.3752,-1.3764,-1.3772,-1.3779,-1.3792,-1.3794,-1.3807,-1.3809,-1.3816,-1.3818,-1.3824,-1.3824,-1.3824,-1.3838,-1.3813,-1.378,-1.3776,-1.3824,-1.3825,-1.3825,0,-1.3679,-1.3692,-1.3693,-1.3699,-1.3719,-1.3719,-1.3727,-1.374,-1.3744,-1.3753,-1.3755,-1.3764,-1.3768,-1.3773,-1.3788,-1.3797,-1.3787,-1.3803,-1.3792,-1.3792,-1.3788,-1.3788,-1.3753,-1.3793,-1.3793,-1.3793,-1.3793,0,-1.3657,-1.3656,-1.3681,-1.3681,-1.368,-1.3699,-1.3697,-1.3707,-1.3718,-1.372,-1.3738,-1.3739,-1.376,-1.3763,-1.3774,-1.3773,-1.3775,-1.378,-1.3783,-1.3777,-1.3776,-1.3778,-1.3779,-1.3792,-1.3792,-1.3792,-1.3793,0,-1.3626,-1.3643,-1.3645,-1.3664,-1.3668,-1.3666,-1.3682,-1.3682,-1.3694,-1.3696,-1.3697,-1.3715,-1.372,-1.3735,-1.3744,-1.3752,-1.3745,-1.3752,-1.3741,-1.3742,-1.3731,-1.3731,-1.3694,-1.3689,-1.3734,-1.3733,-1.3733,0,-1.361,-1.361,-1.3628,-1.3631,-1.3638,-1.3642,-1.3647,-1.3665,-1.3669,-1.3682,-1.368,-1.3686,-1.3691,-1.3697,-1.371,-1.3716,-1.3722,-1.3709,-1.3723,-1.3717,-1.3719,-1.3718,-1.3717,-1.3705,-1.3704,-1.3704,-1.3704,0,-1.358,-1.3588,-1.3594,-1.3602,-1.3607,-1.3614,-1.3623,-1.3623,-1.3644,-1.3647,-1.3651,-1.3655,-1.3663,-1.3668,-1.3676,-1.3683,-1.3696,-1.3699,-1.3697,-1.369,-1.3683,-1.3684,-1.373,-1.37,-1.37,-1.37,-1.37,-1.3701,-1.3555,-1.3555,-1.3567,-1.3572,-1.358,-1.3587,-1.3588,-1.3599,-1.3604,-1.3612,-1.3622,-1.3625,-1.3635,-1.3647,-1.3653,-1.3655,-1.3662,-1.3659,-1.3658,-1.3656,-1.3653,-1.3684,-1.3657,-1.3657,-1.3657,-1.3657,-1.3657,0,-1.3524,-1.3533,-1.3538,-1.3548,-1.3552,-1.3564,-1.3574,-1.3575,-1.3578,-1.3587,-1.3591,-1.3595,-1.36,-1.3613,-1.3618,-1.3617,-1.3622,-1.3617,-1.3616,-1.3617,-1.3647,-1.3648,-1.3612,-1.3612,-1.3612,-1.3612,-1.3612,-1.3612,-1.3509,-1.3508,-1.3517,-1.3519,-1.3528,-1.3531,-1.3534,-1.354,-1.3547,-1.3551,-1.3555,-1.3563,-1.3573,-1.3579,-1.3583,-1.3587,-1.3587,-1.3579,-1.3584,-1.3611,-1.3616,-1.362,-1.362,-1.3579,-1.3579,-1.3554,-1.3554,-1.3554]},{"header":{"parameterUnit":"m.s-1","parameterCategory":1,"la1":30.2991,"la2":30.254,"lo1":-89.0895,"lo2":-89.0444,"dy":0.0017,"dx":0.0017,"nx":28,"ny":28,"refTime":"2023-09-10T21:00:00:Z","depth":0,"parameterNumber":3,"parameterNumberName":"V-component_of_WINDS"},"data":[0,0,0,0,0,0,0,0,0,0,0,0,0,0,0,0,0,0,0,0,0,0,0,0,0,0,0,0,0,0,0,0,0,0,0,0,0,0,0,0,0,0,0,0,0,0,0,0,0,0,0,0,0,0,0,0,0,0,-0.6855,-0.6855,0,-0.685,-0.685,-0.685,-0.6878,-0.6879,-0.688,-0.6881,-0.6874,-0.6873,-0.6872,0,0,0,0,0,0,0,0,0,0,0,0,0,-0.6888,-0.6887,-0.6855,-0.6855,-0.6855,-0.685,-0.685,-0.685,-0.6878,-0.6879,-0.688,-0.6881,-0.6874,-0.6873,-0.6872,0,0,0,0,0,0,0,0,0,0,0,0,0,-0.6877,-0.6887,-0.6855,-0.6869,-0.687,-0.685,-0.685,-0.685,-0.6878,-0.6879,-0.6881,-0.6882,-0.6875,-0.6873,-0.6872,-0.6838,0,0,-0.6867,-0.6867,0,0,0,0,0,0,0,0,-0.6878,-0.6876,-0.6867,-0.6868,-0.6869,-0.6866,-0.6859,-0.6846,-0.6878,-0.6875,-0.6881,-0.6882,-0.687,-0.6869,-0.6865,-0.6837,-0.6837,-0.6867,-0.6866,-0.6866,-0.6865,0,0,0,0,0,0,0,-0.6878,-0.6876,-0.6853,-0.6867,-0.6868,-0.6874,-0.6874,-0.6856,-0.6866,-0.6875,-0.6877,-0.6876,-0.6871,-0.6867,-0.6865,-0.6837,-0.6867,-0.6866,-0.6865,-0.6864,-0.6778,-0.6777,0,0,0,0,0,0,-0.6877,-0.6877,-0.6853,-0.6853,-0.6877,-0.6873,-0.6872,-0.6866,-0.6866,-0.6867,-0.6875,-0.6878,-0.6869,-0.6867,-0.6865,-0.6824,-0.6866,-0.6864,-0.6864,-0.678,-0.6778,-0.6777,0,0,0,0,0,0,-0.6878,-0.6875,-0.6853,-0.6865,-0.6863,-0.6871,-0.6863,-0.6865,-0.6861,-0.6866,-0.6868,-0.6869,-0.6869,-0.6867,-0.6844,-0.6824,-0.6864,-0.6862,-0.6782,-0.6779,-0.6777,-0.6741,0,0,0,0,0,0,-0.6879,-0.6875,-0.6863,-0.6865,-0.6862,-0.6833,-0.6862,-0.6864,-0.6858,-0.6861,-0.6861,-0.6862,-0.687,-0.6846,-0.6842,-0.6823,-0.6861,-0.6783,-0.6781,-0.6778,-0.6744,-0.6738,-0.6733,0,0,0,0,0,-0.688,-0.6853,-0.6862,-0.6859,-0.6847,-0.6832,-0.683,-0.6841,-0.6857,-0.6844,-0.6847,-0.6862,-0.6827,-0.6843,-0.684,-0.6819,-0.6785,-0.6781,-0.6778,-0.6747,-0.674,-0.6733,0,0,0,0,0,0,-0.6849,-0.6854,-0.6864,-0.6837,-0.6834,-0.6837,-0.6821,-0.6833,-0.6825,-0.6828,-0.6841,-0.6841,-0.6814,-0.6815,-0.6833,-0.6785,-0.6808,-0.6804,-0.6786,-0.6779,-0.6773,-0.6773,-0.686,0,0,0,0,0,-0.6839,-0.6827,-0.6832,-0.6807,-0.6805,-0.6813,-0.6807,-0.6815,-0.6812,-0.6811,-0.6812,-0.6808,-0.6796,-0.6788,-0.6777,-0.6745,-0.6744,-0.6729,-0.6723,-0.6718,-0.6714,-0.6695,-0.6688,-0.6766,-0.6766,-0.6766,0,0,-0.6819,-0.682,-0.6811,-0.6801,-0.68,-0.6785,-0.6812,-0.6796,-0.6785,-0.6808,-0.6786,-0.6787,-0.6783,-0.6754,-0.6742,-0.6753,-0.6692,-0.6714,-0.6711,-0.6709,-0.6691,-0.6684,-0.6677,-0.6764,-0.6764,-0.6765,0,0,-0.6774,-0.6774,-0.6753,-0.675,-0.6748,-0.6753,-0.6748,-0.6748,-0.6749,-0.6727,-0.6744,-0.6731,-0.671,-0.6706,-0.6701,-0.6652,-0.6665,-0.6648,-0.6618,-0.6599,-0.6593,-0.6588,-0.6568,-0.6561,-0.6644,-0.6644,-0.6644,0,-0.6748,-0.6728,-0.6741,-0.6723,-0.6717,-0.6738,-0.6715,-0.6712,-0.6706,-0.6701,-0.6714,-0.6687,-0.6686,-0.6656,-0.6644,-0.664,-0.6633,-0.6648,-0.6593,-0.6588,-0.6583,-0.6565,-0.6557,-0.6642,-0.6643,-0.6643,-0.6643,0,-0.6696,-0.6681,-0.6665,-0.6657,-0.665,-0.663,-0.6639,-0.663,-0.6638,-0.6642,-0.6617,-0.6617,-0.6605,-0.6599,-0.6608,-0.6569,-0.6576,-0.6591,-0.6615,-0.6573,-0.6556,-0.6549,-0.6639,-0.664,-0.6641,-0.6641,0,0,-0.6631,-0.6631,-0.6624,-0.662,-0.6618,-0.6606,-0.6587,-0.6575,-0.6566,-0.6561,-0.6543,-0.6525,-0.6538,-0.6532,-0.6541,-0.6524,-0.6483,-0.6541,-0.6541,-0.6529,-0.6438,-0.6425,-0.6417,-0.6492,-0.649,-0.6489,-0.6437,0,-0.6586,-0.6553,-0.6563,-0.6529,-0.6515,-0.6533,-0.6515,-0.6511,-0.6513,-0.6501,-0.6503,-0.6489,-0.6509,-0.6505,-0.649,-0.6491,-0.6464,-0.6495,-0.6474,-0.6473,-0.6473,-0.6409,-0.6396,-0.6347,-0.6431,-0.643,-0.6429,0,-0.6528,-0.652,-0.6485,-0.6483,-0.6477,-0.6461,-0.6451,-0.6439,-0.6434,-0.6437,-0.6429,-0.644,-0.6419,-0.6443,-0.6414,-0.6434,-0.6426,-0.6425,-0.6424,-0.6421,-0.6448,-0.6402,-0.6332,-0.6324,-0.6419,-0.642,-0.6421,0,-0.6482,-0.6463,-0.6438,-0.6435,-0.6432,-0.642,-0.6419,-0.6415,-0.6407,-0.6398,-0.6392,-0.638,-0.6373,-0.6363,-0.637,-0.6387,-0.6338,-0.6364,-0.6338,-0.6338,-0.6326,-0.6327,-0.6252,-0.6323,-0.6324,-0.6324,-0.6324,0,-0.643,-0.6407,-0.6417,-0.6402,-0.6377,-0.6388,-0.6362,-0.6362,-0.6358,-0.6342,-0.6358,-0.6342,-0.6353,-0.6338,-0.6343,-0.6316,-0.6314,-0.6314,-0.6315,-0.6312,-0.6311,-0.6306,-0.6308,-0.6322,-0.6322,-0.6323,-0.6323,0,-0.6374,-0.638,-0.6355,-0.6354,-0.6353,-0.6334,-0.6333,-0.6319,-0.6322,-0.6301,-0.6297,-0.6302,-0.6284,-0.629,-0.6273,-0.6276,-0.6241,-0.6248,-0.6243,-0.6244,-0.6217,-0.6219,-0.6135,-0.6123,-0.6204,-0.6203,-0.6203,0,-0.6339,-0.6322,-0.6319,-0.631,-0.6307,-0.6292,-0.6284,-0.6293,-0.6284,-0.6275,-0.6261,-0.6245,-0.6233,-0.6205,-0.6206,-0.6191,-0.6197,-0.6168,-0.6195,-0.6191,-0.6194,-0.6194,-0.6191,-0.6162,-0.6162,-0.6161,-0.616,0,-0.6276,-0.628,-0.6267,-0.6255,-0.6245,-0.6236,-0.6228,-0.6219,-0.6229,-0.6217,-0.6199,-0.619,-0.6171,-0.6154,-0.6141,-0.6138,-0.615,-0.6152,-0.6145,-0.614,-0.6137,-0.6137,-0.6226,-0.6154,-0.6154,-0.6155,-0.6155,-0.6155,-0.6229,-0.6213,-0.6208,-0.6193,-0.6189,-0.6181,-0.6166,-0.6167,-0.6153,-0.6138,-0.6145,-0.6124,-0.6117,-0.6101,-0.6096,-0.6079,-0.609,-0.608,-0.6077,-0.6075,-0.607,-0.6141,-0.6077,-0.6077,-0.6077,-0.6077,-0.6077,0,-0.6165,-0.6162,-0.6148,-0.6137,-0.6124,-0.6137,-0.6129,-0.6117,-0.6099,-0.6092,-0.608,-0.6059,-0.6042,-0.6041,-0.6026,-0.6012,-0.6017,-0.6007,-0.6008,-0.6006,-0.6062,-0.6069,-0.6004,-0.6004,-0.6004,-0.6004,-0.6004,-0.6004,-0.613,-0.6104,-0.6107,-0.6078,-0.6075,-0.6055,-0.6049,-0.6041,-0.6035,-0.6011,-0.5998,-0.5997,-0.5992,-0.5976,-0.5961,-0.5961,-0.5953,-0.5941,-0.5943,-0.5995,-0.6003,-0.601,-0.6016,-0.594,-0.594,-0.5888,-0.5887,-0.5887]}]]